Temp
39 38 39 40 39 39 39 38 37 38 38 37 37 38 38 37 37 37 36 36 36 35 36 35 34 33 33 33 32 30 29 29 27 27 27 27 28 28 26 27 25 23 22 23
39 38 40 41 39 39 39 38 35 38 38 38 38 38 39 38 37 37 37 37 37 37 36 35 34 34 34 33 32 31 30 29 28 28 26 27 28 28 27 27 25 24 23 21
38 40 40 40 39 39 40 38 38 38 39 39 38 29 36 38 38 38 38 38 38 37 37 36 35 35 34 34 32 31 30 29 28 27 27 26 25 26 26 25 23 23 22 23
39 40 40 39 38 39 39 39 39 38 38 27 34 31 33 38 37 37 38 38 38 38 38 37 36 35 35 34 33 32 30 29 28 27 27 27 27 28 28 27 27 24 23 23
38 39 39 38 39 40 39 39 39 38 38 39 31 35 27 39 38 37 38 39 39 39 38 38 38 36 36 35 34 33 31 29 28 27 26 27 26 28 28 27 24 23 23 22
39 41 40 40 40 40 39 38 39 39 40 37 30 38 30 25 39 39 40 39 39 39 39 38 37 37 36 36 35 34 31 29 27 27 26 26 27 26 26 25 25 24 23 22
38 38 40 40 39 40 39 38 37 37 37 31 27 36 37 39 40 40 39 39 39 39 38 39 38 38 37 36 35 34 32 28 27 26 26 26 25 24 24 24 25 23 24 24
37 37 38 40 39 39 39 39 38 36 35 35 34 38 38 39 41 40 40 39 38 39 39 39 38 37 36 36 35 34 31 28 27 26 26 25 24 25 26 24 23 25 25 25
38 38 41 40 40 39 39 39 41 39 40 39 39 36 41 41 40 39 39 38 38 38 38 37 38 36 36 35 34 33 31 29 28 27 26 24 24 24 25 23 23 24 24 25
39 37 40 40 40 40 39 41 38 39 36 36 35 37 39 37 39 40 39 38 37 37 36 36 37 36 35 35 34 33 31 29 28 28 25 25 25 24 23 23 24 23 22 22
39 38 38 39 38 38 39 38 39 40 33 38 38 35 32 40 39 39 40 39 37 36 36 36 36 35 35 34 33 32 30 29 27 27 26 25 25 23 23 24 23 23 22 22
38 38 37 39 40 40 40 39 39 38 37 39 39 39 42 41 41 40 40 39 37 37 36 35 35 34 34 33 32 31 30 28 27 26 26 24 23 24 25 24 24 23 23 21
38 37 36 37 39 40 38 39 40 40 40 38 38 39 41 41 39 39 39 38 36 35 35 35 34 33 32 31 30 29 28 26 25 25 25 25 25 26 25 24 24 23 22 22
37 38 37 37 38 39 37 38 39 40 39 39 39 40 41 41 40 38 39 37 36 34 34 34 33 31 31 30 28 28 27 26 25 26 26 25 25 25 25 24 23 23 22 22
37 36 37 38 39 39 39 38 38 38 39 38 40 39 41 41 41 40 39 37 36 34 34 34 32 31 30 28 27 27 26 26 26 26 25 24 24 24 23 22 21 21 21 20
38 36 37 37 38 39 38 39 39 39 39 39 39 39 42 42 42 40 39 38 36 35 34 34 32 31 29 28 27 27 26 26 25 25 25 23 22 22 22 21 21 21 19 19
37 37 37 35 38 38 37 38 39 39 40 40 38 39 41 41 41 41 40 39 37 35 35 33 31 30 30 28 27 26 26 25 25 24 23 23 22 22 21 21 21 20 20 19
37 36 37 36 37 34 38 40 40 39 40 40 40 40 40 40 41 41 40 39 37 36 35 33 32 30 30 29 28 27 26 25 24 24 23 22 22 21 21 20 20 19 19 19
38 37 36 35 36 37 38 39 40 39 38 40 40 40 40 40 41 39 40 40 39 37 36 34 32 31 29 29 28 27 26 25 24 24 23 22 22 21 20 20 19 19 19 19
37 38 35 31 35 35 38 40 41 40 37 39 39 39 38 39 38 38 37 38 38 37 36 34 32 31 29 28 27 26 26 25 24 24 23 22 21 21 20 19 18 18 18 19
35 35 35 35 26 34 37 38 39 35 35 36 36 36 35 36 36 36 38 36 38 37 35 33 32 31 29 28 27 26 25 25 25 22 21 20 20 20 19 18 18 18 18 19
33 34 35 35 34 32 35 37 36 35 36 35 35 35 34 34 35 36 36 36 37 36 35 33 32 30 29 28 27 26 23 23 21 20 20 19 19 20 19 18 18 18 18 18
26 18 23 33 32 23 27 30 36 36 35 34 34 35 34 35 35 35 35 36 36 35 34 33 31 29 29 27 27 25 23 21 20 20 19 19 19 19 18 18 18 18 18 19
29 26 31 34 31 24 29 33 35 35 34 34 34 34 34 34 34 35 35 35 35 35 33 31 29 29 27 26 26 24 21 20 20 20 19 19 19 18 18 19 19 20 21 21
32 22 26 33 34 34 35 33 33 33 33 33 33 34 34 34 34 34 34 34 34 33 32 29 28 27 26 25 21 20 19 19 19 19 19 18 19 18 19 19 20 20 19 18
33 33 32 32 32 31 32 33 33 32 32 32 32 32 32 33 33 33 33 33 33 32 27 26 26 25 21 18 18 18 18 18 18 18 19 20 20 19 20 19 19 18 18 18
Height
728 741 742 721 725 727 731 735 742 733 724 733 732 731 721 724 729 731 734 736 742 746 748 753 761 765 768 773 778 783 787 789 792 794 795 796 795 796 797 797 797 799 800 793
736 746 719 709 722 730 726 735 756 728 721 728 728 729 716 716 723 723 729 732 733 737 741 748 756 760 763 768 773 778 782 785 788 790 791 792 792 793 795 795 795 796 798 796
740 724 715 719 730 734 723 737 738 735 722 718 729 772 731 716 712 717 717 721 724 729 735 743 748 752 757 761 768 773 776 780 784 786 787 791 793 792 791 793 793 793 794 794
726 715 718 722 736 726 737 722 724 729 736 795 738 781 735 719 720 717 717 717 721 723 727 734 742 747 751 755 761 766 771 775 779 782 783 786 786 787 786 788 789 792 792 790
730 727 726 733 729 718 729 718 723 724 730 721 755 750 780 713 723 718 712 710 713 715 722 726 731 738 742 747 754 759 765 771 775 778 780 782 784 784 785 788 790 791 790 788
721 701 712 715 713 712 716 728 721 717 717 749 776 730 777 785 714 704 696 701 705 710 712 720 726 730 736 742 749 754 761 767 771 774 777 780 782 784 786 789 789 789 788 788
725 726 709 707 724 709 723 736 754 756 753 790 773 739 737 706 699 695 701 702 700 702 711 714 721 727 732 737 744 750 757 763 767 771 775 779 782 784 787 787 786 787 787 787
739 745 721 707 719 723 725 728 740 770 764 757 738 732 730 699 690 690 694 700 703 704 706 712 718 725 730 735 740 747 754 760 764 770 775 778 781 783 784 785 786 786 786 786
724 729 692 701 702 711 722 732 706 725 708 727 717 726 689 687 697 696 698 704 707 707 708 714 717 724 729 734 739 746 753 759 764 768 773 777 780 781 783 785 786 786 785 785
710 737 699 700 702 703 713 697 737 725 759 758 751 733 716 716 702 697 699 705 707 711 713 716 719 723 730 734 739 746 752 758 762 766 772 775 777 780 782 784 784 785 785 785
707 715 716 704 718 718 720 726 720 709 750 740 743 752 738 696 696 699 695 699 707 711 714 717 721 726 729 733 738 744 751 756 762 766 770 774 777 779 781 783 784 784 784 784
706 711 728 712 694 694 701 716 715 732 742 720 724 726 672 679 684 691 692 697 702 708 714 718 722 727 730 734 739 745 751 757 762 766 770 773 776 778 780 782 784 785 785 785
703 722 737 726 704 698 712 703 699 701 698 722 735 724 679 677 689 692 692 696 703 709 714 716 722 728 735 739 743 748 753 757 762 766 769 772 775 777 780 782 784 784 785 785
698 709 719 728 717 699 718 710 702 701 716 713 711 707 689 685 689 693 692 698 705 712 715 717 723 730 735 740 745 750 754 757 761 765 769 772 775 778 781 783 785 786 787 787
703 721 708 701 694 692 699 705 707 712 704 716 701 707 687 684 683 685 688 696 705 711 715 716 722 729 735 741 746 750 754 758 762 767 770 774 777 779 782 783 785 787 789 789
693 719 706 713 696 696 702 694 695 699 701 701 699 702 674 672 671 679 685 693 701 706 709 712 718 726 733 739 744 750 755 760 764 768 771 776 779 782 782 784 786 789 789 789
699 704 708 722 697 700 716 699 690 690 686 688 710 693 679 681 677 675 679 685 694 699 703 709 717 724 728 736 742 749 754 759 764 768 772 776 778 781 782 785 787 788 789 790
693 701 700 714 702 738 692 666 676 684 682 678 682 682 678 676 668 668 671 677 684 691 698 706 717 722 726 733 740 747 754 760 765 769 773 776 778 780 783 785 786 789 790 791
673 689 706 716 713 698 686 673 674 686 691 676 678 677 677 670 667 674 668 664 672 683 692 702 711 718 725 731 738 746 752 758 763 768 773 777 779 781 783 785 787 790 791 793
675 675 702 728 720 725 682 658 656 665 708 671 674 679 684 678 697 684 675 672 671 678 689 700 707 715 725 731 737 744 749 755 760 765 771 775 778 781 784 787 790 790 792 793
693 694 700 703 756 708 673 668 662 714 715 684 684 688 689 692 689 678 671 674 670 677 687 698 706 714 723 731 737 744 749 754 760 765 771 775 778 781 784 787 789 791 791 791
704 705 699 694 707 731 678 679 697 688 678 685 688 687 691 689 683 679 676 675 673 678 687 696 703 713 722 730 736 743 752 755 761 767 771 774 778 781 784 787 789 791 792 792
738 755 760 698 706 724 711 699 661 675 683 686 689 685 686 686 683 679 680 676 676 681 689 696 704 713 720 727 734 743 754 760 765 769 773 776 778 781 784 788 790 791 792 790
702 713 704 691 698 716 702 688 683 683 686 685 685 686 685 686 683 681 679 677 679 683 690 697 707 713 721 727 734 742 752 759 764 769 771 775 775 780 783 787 787 786 786 785
687 725 714 696 686 684 675 686 687 688 687 687 687 687 686 686 683 683 680 682 681 686 692 700 707 713 722 728 736 745 752 760 769 775 779 784 777 778 782 784 784 786 787 788
684 689 700 699 686 696 692 687 690 690 691 690 691 690 688 687 686 685 683 684 684 686 693 701 709 714 724 726 737 750 759 755 765 773 780 779 776 778 782 784 786 788 789 790
Wind_Speed
18 15 14 14 4 6 7 8 9 2 2 5 9 6 5 14 13 11 10 13 17 16 17 21 21 20 20 16 19 17 16 15 16 16 15 15 16 15 17 16 12 11 14 17
19 16 18 7 5 8 13 3 10 7 2 7 9 7 10 14 16 14 13 12 14 16 19 18 21 22 20 21 18 18 17 17 17 16 17 17 13 11 12 11 12 15 16 17
21 18 16 5 9 14 14 8 3 5 8 11 10 15 18 13 17 15 14 14 14 15 16 17 19 23 22 22 22 20 20 18 19 18 16 14 13 13 12 11 11 14 14 14
20 18 19 13 12 15 8 11 7 9 12 7 27 7 14 15 15 16 16 16 15 14 15 17 18 20 23 22 22 23 20 19 19 19 18 15 15 13 13 11 8 7 10 15
18 19 22 13 15 16 11 7 13 12 15 18 17 2 9 8 15 15 15 18 16 18 17 15 19 24 22 22 23 22 21 19 18 19 19 16 17 14 9 7 3 7 9 9
19 14 18 20 15 12 9 12 17 15 14 4 11 18 8 10 7 8 8 16 17 18 18 18 19 19 22 21 21 20 18 17 18 18 18 18 10 8 5 4 6 7 6 4
18 19 21 17 19 17 11 15 11 6 3 5 18 16 9 8 7 7 9 5 8 16 16 16 17 16 19 20 22 20 17 18 17 17 16 14 10 8 7 5 6 7 4 5
15 16 23 15 21 19 14 17 14 10 6 7 13 5 4 9 9 7 7 10 7 8 15 16 16 17 18 18 18 19 18 18 16 14 11 9 9 9 5 3 6 5 4 2
11 14 14 18 19 19 16 16 16 16 18 9 9 9 14 7 8 10 10 8 8 9 9 12 15 19 19 19 19 19 17 15 12 12 10 9 9 4 0 1 2 4 3 1
18 9 13 14 16 18 21 10 12 11 14 11 6 14 6 12 9 7 9 7 9 9 10 10 10 12 14 17 18 16 14 12 12 12 11 10 9 6 4 5 1 1 2 3
19 11 11 13 17 18 13 13 11 13 6 10 6 4 8 6 11 3 8 10 11 12 13 13 11 14 16 16 15 16 14 14 14 13 12 10 8 6 8 6 5 6 6 6
17 10 11 14 18 20 19 21 19 12 11 11 6 10 5 10 8 4 8 13 14 14 13 12 12 14 13 14 14 15 16 16 15 13 11 9 8 9 8 7 7 6 7 6
16 11 14 16 17 16 19 24 20 20 18 15 6 1 4 8 11 2 12 14 15 15 15 14 14 12 15 15 15 15 15 16 15 13 12 12 11 11 10 8 7 6 5 5
11 17 13 14 16 16 16 19 20 20 14 11 9 15 2 3 5 9 11 12 15 14 15 15 14 13 16 16 17 17 17 17 16 15 15 14 12 12 10 8 7 5 4 3
16 18 17 19 17 13 18 20 22 21 20 19 15 4 4 1 6 9 12 15 16 16 18 17 16 14 18 19 19 19 18 18 17 16 15 13 13 12 10 9 7 5 3 3
17 17 17 21 13 17 17 17 21 23 19 17 16 17 15 12 6 3 2 14 16 18 18 18 17 17 19 22 21 19 19 18 17 16 15 13 11 11 10 8 5 4 4 3
17 15 15 15 18 16 17 16 16 19 22 20 15 12 15 17 15 2 3 10 16 18 19 19 18 19 24 25 23 22 21 20 18 16 15 14 12 10 8 7 5 4 3 2
10 16 13 12 15 17 12 16 18 15 13 13 11 13 16 16 17 5 10 8 16 19 19 18 17 24 26 26 25 24 22 20 18 16 15 13 12 10 8 7 6 3 2 1
13 10 12 12 12 9 20 5 17 11 7 10 11 6 12 11 12 11 13 6 13 19 18 20 26 27 27 27 26 25 24 22 19 17 15 13 11 10 8 6 4 2 2 2
15 12 8 6 16 15 14 18 15 4 8 5 9 7 10 11 9 3 8 3 9 16 21 23 27 27 26 27 27 26 25 23 21 19 17 14 11 9 7 5 4 2 2 3
14 10 13 13 1 12 14 9 5 12 3 7 8 7 9 8 10 15 7 5 9 15 21 25 27 26 27 27 27 25 23 22 20 18 17 14 12 9 7 6 4 4 5 3
12 8 12 13 6 9 19 4 6 7 6 7 7 7 8 9 10 8 6 6 10 16 19 25 24 24 27 27 27 24 22 20 21 20 17 15 11 9 8 7 5 5 3 4
1 7 13 3 4 13 2 27 12 9 5 6 7 9 9 9 9 10 6 5 9 14 19 24 22 22 27 28 27 24 21 22 22 19 16 14 12 9 8 7 7 7 6 8
1 2 9 7 10 10 15 10 6 8 7 7 7 8 8 8 9 9 2 6 9 12 17 19 22 23 22 26 23 27 25 24 21 20 19 18 15 13 10 9 8 9 6 5
3 15 17 11 10 14 2 7 7 7 7 7 7 7 7 8 7 6 2 5 8 13 18 19 20 21 24 24 28 27 24 18 11 11 12 11 14 14 10 5 1 2 3 6
11 8 8 9 7 6 8 6 9 7 7 5 6 6 7 7 6 3 2 4 7 10 15 21 21 22 21 29 30 25 20 25 22 14 13 13 12 10 9 6 5 2 2 1
Wind_Direction
211 236 242 261 23 15 307 300 98 319 84 270 229 253 188 170 194 185 182 175 182 192 188 188 194 195 193 199 185 206 210 214 211 215 223 227 234 230 238 240 231 225 235 242
236 225 258 292 4 288 278 52 330 70 227 253 268 267 190 182 192 201 189 184 179 190 188 195 192 201 205 191 200 207 214 214 216 220 223 235 246 249 245 249 240 238 232 242
232 232 233 251 244 241 257 275 243 313 299 247 260 355 282 190 186 194 196 197 189 179 182 186 197 199 198 197 197 211 213 216 215 223 223 232 241 246 242 254 253 251 244 242
239 245 252 212 236 265 308 319 297 280 266 152 243 212 332 171 191 189 201 193 195 188 190 174 186 200 202 204 203 207 211 214 216 216 223 220 230 239 238 230 248 253 254 248
231 231 245 229 234 238 297 359 309 304 286 266 351 245 208 211 173 187 206 196 206 187 190 197 188 185 204 198 201 203 201 207 215 212 220 220 232 250 252 244 256 272 272 252
256 242 236 246 231 245 259 288 251 246 251 261 243 295 100 267 64 137 178 186 199 196 202 192 197 196 193 197 196 198 191 200 211 212 216 223 242 238 232 243 277 287 261 252
223 239 254 234 239 233 218 251 252 248 260 72 247 263 59 103 58 103 142 153 195 187 202 189 194 199 204 198 196 201 188 203 209 209 214 215 214 203 216 244 272 305 249 243
218 219 222 209 243 245 208 245 274 286 183 235 217 322 120 237 112 79 118 134 156 182 190 199 190 200 201 209 200 203 194 205 205 204 204 195 191 201 228 253 309 238 197 218
247 231 211 213 219 241 240 236 275 294 288 234 8 179 150 66 94 122 134 143 164 170 177 191 187 193 196 200 196 200 195 199 192 183 177 181 183 181 162 137 215 184 178 355
267 280 221 181 222 227 244 252 221 238 270 267 92 303 142 174 77 83 141 173 137 144 162 167 183 176 185 195 192 189 185 184 173 166 166 175 170 173 154 169 171 186 112 106
244 246 238 188 203 226 206 244 257 283 181 276 282 96 253 135 91 44 130 154 152 159 159 162 160 172 177 174 173 172 169 155 162 158 158 145 156 168 173 171 150 135 124 102
227 249 232 231 211 220 240 216 239 242 220 265 318 301 204 82 51 147 146 151 160 161 156 158 158 162 159 155 154 153 151 151 154 153 153 159 171 176 168 153 139 128 111 95
211 231 256 238 202 218 227 238 229 246 257 261 269 356 38 104 129 206 146 162 160 161 166 160 161 155 156 156 153 150 150 147 150 151 153 151 157 160 149 148 132 122 104 94
247 238 234 247 235 200 220 241 242 254 256 248 225 255 321 82 164 139 158 168 167 171 174 166 158 164 164 159 156 155 150 150 146 152 151 147 150 144 143 131 115 103 90 93
226 243 244 256 269 240 234 216 232 241 252 263 276 306 313 69 350 83 160 176 178 183 183 173 168 171 166 161 161 159 152 148 152 153 150 151 151 143 133 118 113 111 114 106
217 241 241 249 251 249 254 253 216 232 239 254 274 280 310 316 267 186 162 186 191 189 194 181 170 176 168 167 164 159 155 156 158 158 153 149 146 145 135 129 131 137 120 117
218 237 246 238 232 240 236 242 247 226 233 233 246 268 260 267 271 302 358 201 201 197 193 185 174 178 173 169 165 165 162 162 162 164 158 160 155 148 144 148 149 156 153 146
215 230 244 250 227 223 250 224 225 246 244 240 259 287 290 279 280 330 295 269 196 201 192 183 180 183 173 169 167 163 164 166 167 163 165 165 161 154 155 155 146 159 143 184
243 214 227 246 242 234 244 198 199 217 210 242 269 332 298 281 287 293 350 193 209 200 190 180 183 181 173 170 167 165 165 168 168 169 169 171 165 160 159 156 151 157 183 223
246 245 289 331 265 231 246 186 203 236 245 16 10 22 356 330 275 97 19 284 229 189 185 180 179 173 174 172 169 168 169 170 173 170 171 167 167 164 165 159 159 168 191 208
217 235 235 197 143 289 87 43 121 201 89 37 23 24 357 345 339 325 329 310 221 176 179 179 175 172 174 173 170 174 168 175 170 152 155 159 162 164 155 158 161 175 204 155
252 238 223 247 205 242 359 192 267 85 88 33 8 6 359 337 321 331 319 251 210 167 176 181 174 170 174 174 172 172 172 166 155 154 156 156 160 160 157 161 170 196 202 209
327 125 275 56 41 348 77 286 43 27 29 22 356 358 343 327 338 325 332 229 198 170 174 182 164 163 175 176 178 162 165 154 146 154 158 160 158 155 156 171 182 200 219 266
61 46 294 290 147 150 232 289 5 4 3 354 335 337 334 337 323 322 334 221 182 175 172 178 162 171 172 174 167 154 153 152 161 165 165 167 158 161 171 191 195 237 239 251
65 143 231 294 288 286 162 71 28 12 356 358 335 320 319 323 336 338 243 248 198 179 180 164 163 162 171 161 137 142 141 148 150 156 164 177 160 168 177 232 165 301 32 20
287 288 278 286 18 337 328 13 347 337 348 357 351 348 335 315 313 314 296 209 227 167 135 152 169 155 131 126 117 126 141 145 155 165 189 193 158 163 185 177 183 230 127 279